Regional Weather Roundup
Issued by NWS Northern Indiana

Home | Current Version | Previous Version | Text Only | Print | Product List | Glossary On
Versions: 1 2 3 4 5 6 7 8 9 10 11 12 13 14 15 16 17 18 19 20 21 22 23 24 25 26 27 28 29 30 31 32 33 34 35 36 37 38 39 40 41 42 43 44 45 46 47 48 49 50
000
ASUS43 KIWX 282100
RWRIWX

KIWX WEATHER ROUNDUP
NATIONAL WEATHER SERVICE NORTHERN INDIANA
500 PM EDT WED SEP 28 2016

NOTE: "FAIR" INDICATES FEW OR NO CLOUDS BELOW 12,000 FEET WITH NO
SIGNIFICANT WEATHER AND/OR OBSTRUCTIONS TO VISIBILITY.

* THESE STATIONS ARE NOT UNDER NWS QUALITY CONTROL. THEY ALSO MAY NOT
  REPORT WEATHER SUCH AS PRECIPITATION OR FOG.

INZ001>027-282200-
NORTHERN INDIANA

CITY           SKY/WX    TMP DP  RH WIND       PRES   REMARKS
GARY*          PTSUNNY   61  54  77 NE10G23   29.95
SOUTH BEND     CLOUDY    61  50  67 N7        29.93R
GOSHEN         LGT RAIN  60  50  69 N9        29.91R
ANGOLA*          N/A     61  48  63 NE9       29.90R
FORT WAYNE     TSTM      56  53  90 E5        29.88R FOG

$$
INZ028>050-282200-
CENTRAL INDIANA

CITY           SKY/WX    TMP DP  RH WIND       PRES   REMARKS
KOKOMO*        CLOUDY    61  52  72 NW10      29.90R
MUNCIE*        TSTM      61  53  75 VRB7      29.87R
INDIANAPOLIS   CLOUDY    59  54  83 W3        29.88S

$$
MIZ043>046-050>051-056>058-064>065-071>073-077>080-282200-
SOUTHWEST LOWER MICHIGAN

CITY           SKY/WX    TMP DP  RH WIND       PRES   REMARKS
BATTLE CREEK   CLOUDY    58  50  75 NE8       29.95R
BENTON HARBOR  CLOUDY    63  51  65 NE5       29.94R
COLDWATER*     CLOUDY    56  50  80 NE13G20   29.93R
HILLSDALE*     CLOUDY    54  50  87 NE5       29.92R
HOLLAND        LGT RAIN  58  52  80 N5        29.97R
GRAND RAPIDS   CLOUDY    58  49  72 N14       29.97R
KALAMAZOO      CLOUDY    58  45  62 NE9G21    29.96R
STURGIS*       CLOUDY    56  51  81 NE10      29.92R
THREE RIVERS*  CLOUDY    59  48  67 NE15      29.94R

$$
OHZ001>008-015>018-024>025-282200-
NORTHWEST OHIO

CITY           SKY/WX    TMP DP  RH WIND       PRES   REMARKS
DEFIANCE       CLOUDY    62  51  67 N9        29.88R
FINDLAY        CLOUDY    63  52  67 SE10      29.87R
TOLEDO EXPRESS CLOUDY    61  55  81 E10       29.90R
TOLEDO METCALF PTSUNNY   63  56  78 E9        29.91S
LIMA           CLOUDY    59  56  89 E8        29.86F

$$
AND FOR LAKE MICHIGAN COASTAL AND OPEN LAKE BUOY OBSERVATIONS

STATION/POSITION TEMP    WIND        PRES    VSBY  WAVE
                 AIR SEA DIR/SP/G                  HT/PER
                 (F)     (DEG/KT/KT) (MB)    (MI)  (FT/S)
CALUMET HARBOR    56     300/  8/ 15 1013.7R
MICHIGAN CITY     58      10/ 11/ 12   N/A
BURNS HARBOR      60      40/ 13/ 18 1014.2R
SAINT JOSEPH      63      30/  3/ 11 1013.9
SOUTH LAKE BUOY   62 69   50/ 17/ 23 1013.7          3/ 4
4 MI NW BRIDGMAN  61 65   20/ 10/ 12 1013.7R         2/ 4
MICHIGAN CITY     59 66   30/ 12/ 14   N/A           3/ 4

$$
&&




USA.gov is the U.S. government's official web portal to all federal, state and local government web resources and services.